Location: La Sioule Rivi�re
(46.3664°N, 3.3197°E)
Time: 12:34:06
(UTC+00:00)

CZ-2D R/B - Pass Details

Date: 29 October 2020
Orbit: 521 x 538 km, 97.4° (Epoch: 23 November)

Event Time Altitude Azimuth Distance (km) Brightness Sun altitude
Rises 17:21:12 0° 141° (SE) 2,650 6.5 -8.4°
Reaches altitude 10° 17:23:29 10° 130° (SE) 1,763 5.5 -8.7°
Maximum altitude 17:26:48 29° 69° (ENE) 973 4.0 -9.3°
Drops below altitude 10° 17:30:08 10° 8° (N) 1,771 5.7 -9.9°
Sets 17:32:25 0° 357° (N) 2,663 6.7 -10.3°
